星链-31480 (STARLINK-31480 )

导读

STARLINK-31480是美国SpaceX星链星座的成员,于2024年3月24日发射入轨,属于第二代星链卫星。它依托星链全球低轨互联网星座布局,为全球偏远地区、移动场景提供高速低延迟宽带服务,支撑天基互联网通信能力,也服务于部分特殊通信场景需求,推进星链网络规模扩容。

Basic Information
目录编号:
59306
目录名称:
STARLINK-31480
国际标识:
2024-056L
轨道中心:
EARTH
卫星名称:
星链-31480
卫星全名:
星链-31480 (STARLINK-31480 )
卫星状态:
在轨 (已飞行894 天)
发射日期:
2024-03-24 UTC
国别 :
美国 (US)
星等 :
--
Orbit Information
数据来源 国际轨道数据 AOE轨道数据
星历时间 2026-09-04T12:20:12+0800
11小时前
查看轨道信息
2026-09-03T17:00:00+0800
1天前
查看轨道信息
半长轴 6861.363km 6861.206km
偏心率 0.0001028 0.0001369
轨道倾角 43.006° 43.004°
近地点辐角 270.654° 327.456°
升交点赤经 302.566° 307.116°
平近点角 89.419° 276.780°
近地点 482.52km 482.129km
远地点 483.932km 484.009km
周期 94.270分钟 94.267分钟
每日圈数 15.27521 15.275734
Detailed Information
固有亮度:
5
最大亮度:
0.3
卫星平台:
Starlink v2.0 mini
覆盖范围:
全球
运营商:
太空探索技术公司
运营商所在国:
美国
制造商(研发单位):
太空探索技术公司
制造商所在国:
美国
使用方式:
暂无
Satellite Introduction
星链(Starlink)计划是由太空探索技术公司(SpaceX)提出的一个巨型低轨卫星互联网星座项目,计划在2019年至2024年间在太空搭建由约1.2万颗卫星组成的“星链”网络,其中1584颗将部署在地球上空550千米处的近地轨道,并从2020年开始工作。该卫星仍在工作。
2D Orbit Map
3D Orbit Map
Orbit Altitude Analysis Chart
Orbit Inclination Analysis Chart
Orbit Comprehensive Analysis Chart
View Comprehensive Chart
Conjunction Data List
Event ID Objects TCA Miss Dist (km) Collision Risk Probability Collision Risk Index (CRI) Action
CDM_260906-202005-930606-347321
2026-09-06T
20:20:00+0000
0.424 km
远距离
1.133842E-4 高风险 0.76
CDM_260905-212405-930606-215121
2026-09-05T
21:24:30+0000
0.661 km
远距离
5.637348E-5 中风险 0.7
CDM_260907-052505-919505-930621
2026-09-07T
05:25:49+0000
0.797 km
远距离
4.311183E-5 中风险 0.68
CDM_260906-142805-930606-384121
2026-09-06T
14:28:55+0000
0.845 km
远距离
3.665093E-5 中风险 0.66
CDM_260905-112105-930606-793021
2026-09-05T
11:21:12+0000
0.790 km
远距离
1.23367E-5 中风险 0.57
CDM_260907-001505-930606-347321
2026-09-07T
00:15:23+0000
0.894 km
远距离
1.218658E-5 中风险 0.57
CDM_260907-023105-930606-744721
2026-09-07T
02:31:18+0000
0.947 km
远距离
9.248806E-6 低风险 0.54
CDM_260906-060205-930606-215121
2026-09-06T
06:02:22+0000
1.229 km
极远距离
7.1571E-6 低风险 0.52
CDM_260906-210105-930606-744721
2026-09-06T
21:01:45+0000
1.024 km
极远距离
7.077451E-6 低风险 0.52
CDM_260906-125405-930606-384121
2026-09-06T
12:54:46+0000
1.611 km
极远距离
4.135441E-6 低风险 0.47